N107J KMSO-KSDL

Flight info

Callsign N107J
Flight time N/A
Altitude 39000
Route VICTO1 LKT TCH FLG DSERT2
Aircraft CL60/M-SBDE1E2E3FGHIJ4J5J7M3RWXYZ/LB1V1D1

Departure

Time 2026-04-12 20:39
Airport Missoula Montana Airport (KMSO)

Arrival

Time N/A
Airport Scottsdale Airport (KSDL)
Time Latitude Longitude Altitude Speed Heading
2026-04-12 20:23 46.91446 -114.07942 3214 ft 0 kts 90°
2026-04-12 20:32 46.91446 -114.07941 3215 ft 1 kts 90°
2026-04-12 20:32 46.91478 -114.07913 3215 ft 8 kts 357°
2026-04-12 20:32 46.91527 -114.07917 3215 ft 6 kts 332°
2026-04-12 20:32 46.91533 -114.07991 3215 ft 9 kts 268°
2026-04-12 20:33 46.91531 -114.08067 3215 ft 0 kts 269°
2026-04-12 20:33 46.91532 -114.08105 3215 ft 8 kts 271°
2026-04-12 20:33 46.91515 -114.08199 3215 ft 11 kts 225°
2026-04-12 20:33 46.91449 -114.08281 3215 ft 14 kts 221°
2026-04-12 20:34 46.91395 -114.08353 3214 ft 7 kts 236°
2026-04-12 20:34 46.91414 -114.08455 3214 ft 13 kts 310°
2026-04-12 20:34 46.91479 -114.08566 3214 ft 13 kts 311°
2026-04-12 20:34 46.91545 -114.08680 3214 ft 15 kts 312°
2026-04-12 20:35 46.91621 -114.08809 3213 ft 18 kts 312°
2026-04-12 20:35 46.91701 -114.08948 3213 ft 18 kts 311°
2026-04-12 20:35 46.91759 -114.09045 3213 ft 12 kts 310°
2026-04-12 20:35 46.91819 -114.09148 3212 ft 14 kts 310°
2026-04-12 20:36 46.91892 -114.09274 3212 ft 17 kts 310°
2026-04-12 20:36 46.91975 -114.09415 3211 ft 19 kts 310°
2026-04-12 20:36 46.92050 -114.09544 3210 ft 14 kts 310°
2026-04-12 20:36 46.92120 -114.09664 3209 ft 17 kts 311°
2026-04-12 20:37 46.92205 -114.09808 3208 ft 20 kts 311°
2026-04-12 20:37 46.92296 -114.09965 3207 ft 20 kts 310°
2026-04-12 20:37 46.92370 -114.10092 3207 ft 16 kts 310°
2026-04-12 20:37 46.92450 -114.10226 3208 ft 18 kts 312°
2026-04-12 20:38 46.92531 -114.10366 3209 ft 16 kts 309°
2026-04-12 20:38 46.92588 -114.10491 3211 ft 11 kts 268°
2026-04-12 20:38 46.92546 -114.10561 3211 ft 9 kts 218°
2026-04-12 20:38 46.92491 -114.10626 3210 ft 11 kts 210°
2026-04-12 20:39 46.92437 -114.10576 3210 ft 19 kts 131°
2026-04-12 20:39 46.92115 -114.10023 3208 ft 120 kts 131°
2026-04-12 20:39 46.91447 -114.08878 3505 ft 167 kts 133°
2026-04-12 20:39 46.90667 -114.07507 4278 ft 188 kts 129°
2026-04-12 20:40 46.89790 -114.05914 5015 ft 211 kts 129°
2026-04-12 20:40 46.88761 -114.04436 5816 ft 217 kts 148°
2026-04-12 20:40 46.87277 -114.03774 6705 ft 238 kts 180°
2026-04-12 20:40 46.85601 -114.04085 7757 ft 254 kts 189°
2026-04-12 20:41 46.83856 -114.04511 8919 ft 262 kts 188°
2026-04-12 20:41 46.82086 -114.04929 10105 ft 266 kts 188°
2026-04-12 20:41 46.80271 -114.05358 11365 ft 269 kts 188°
2026-04-12 20:41 46.78470 -114.05779 12657 ft 270 kts 188°
2026-04-12 20:42 46.76651 -114.05788 13974 ft 268 kts 173°
2026-04-12 20:42 46.74828 -114.05388 15282 ft 265 kts 172°
2026-04-12 20:42 46.73058 -114.04999 16526 ft 261 kts 171°
2026-04-12 20:42 46.71298 -114.04614 17720 ft 257 kts 171°
2026-04-12 20:43 46.69478 -114.04217 18160 ft 283 kts 171°
2026-04-12 20:43 46.67419 -114.03767 18176 ft 320 kts 171°
2026-04-12 20:43 46.65116 -114.03267 18498 ft 345 kts 171°
2026-04-12 20:43 46.62728 -114.02748 19202 ft 356 kts 171°
2026-04-12 20:44 46.60242 -114.02209 20061 ft 363 kts 171°
2026-04-12 20:44 46.57773 -114.01718 20949 ft 367 kts 175°
2026-04-12 20:44 46.55189 -114.01714 21791 ft 372 kts 181°
2026-04-12 20:44 46.52605 -114.01846 22602 ft 376 kts 181°
2026-04-12 20:45 46.49995 -114.01971 23423 ft 380 kts 181°
2026-04-12 20:45 46.47366 -114.02095 24229 ft 384 kts 181°
2026-04-12 20:45 46.44677 -114.02222 25041 ft 388 kts 181°
2026-04-12 20:45 46.41998 -114.02346 25748 ft 392 kts 181°
2026-04-12 20:46 46.39248 -114.02473 26428 ft 396 kts 181°
2026-04-12 20:46 46.36481 -114.02602 27074 ft 399 kts 181°
2026-04-12 20:46 46.33688 -114.02729 27671 ft 403 kts 181°
2026-04-12 20:46 46.30894 -114.02856 28243 ft 406 kts 181°
2026-04-12 20:47 46.28054 -114.02985 28805 ft 409 kts 181°
2026-04-12 20:47 46.25211 -114.03113 29564 ft 407 kts 181°
2026-04-12 20:47 46.22405 -114.03239 30438 ft 401 kts 181°
2026-04-12 20:47 46.19669 -114.03362 31203 ft 396 kts 181°
2026-04-12 20:48 46.16930 -114.03485 31814 ft 394 kts 181°
2026-04-12 20:48 46.14207 -114.03606 32322 ft 393 kts 181°
2026-04-12 20:48 46.11472 -114.03728 32799 ft 392 kts 181°
2026-04-12 20:48 46.08766 -114.03848 33248 ft 392 kts 181°
2026-04-12 20:49 46.06031 -114.03969 33694 ft 391 kts 181°
2026-04-12 20:49 46.03324 -114.04089 34130 ft 390 kts 181°
2026-04-12 20:49 46.00623 -114.04208 34529 ft 390 kts 181°
2026-04-12 20:49 45.97924 -114.04327 34912 ft 389 kts 181°
2026-04-12 20:50 45.95239 -114.04445 35273 ft 389 kts 182°
2026-04-12 20:50 45.92546 -114.04563 35631 ft 388 kts 182°
2026-04-12 20:50 45.89880 -114.04680 35971 ft 387 kts 182°
2026-04-12 20:50 45.87183 -114.04798 36265 ft 387 kts 182°
2026-04-12 20:51 45.84485 -114.04916 36566 ft 387 kts 182°
2026-04-12 20:51 45.81799 -114.05033 36872 ft 386 kts 182°
2026-04-12 20:51 45.79091 -114.05151 36762 ft 388 kts 182°
2026-04-12 20:51 45.76421 -114.05268 37350 ft 388 kts 183°
2026-04-12 20:52 45.73704 -114.05386 37624 ft 388 kts 183°
2026-04-12 20:52 45.71016 -114.05503 37862 ft 387 kts 183°
2026-04-12 20:52 45.68355 -114.05618 38103 ft 387 kts 183°
2026-04-12 20:52 45.65658 -114.05735 38309 ft 387 kts 183°
2026-04-12 20:53 45.62979 -114.05851 38498 ft 388 kts 183°
2026-04-12 20:53 45.60288 -114.05968 38679 ft 389 kts 183°
2026-04-12 20:53 45.57551 -114.06087 38716 ft 394 kts 184°
2026-04-12 20:54 45.52025 -114.06326 38723 ft 405 kts 183°
2026-04-12 20:54 45.46305 -114.06574 38728 ft 416 kts 183°
2026-04-12 20:55 45.40512 -114.06824 38717 ft 425 kts 183°
2026-04-12 20:55 45.34524 -114.07082 38710 ft 432 kts 183°
2026-04-12 20:56 45.28540 -114.07338 38707 ft 435 kts 183°
2026-04-12 20:56 45.22481 -114.07596 38717 ft 435 kts 183°
2026-04-12 20:57 45.16484 -114.07851 38721 ft 433 kts 183°
2026-04-12 20:57 45.10471 -114.08106 38724 ft 432 kts 184°
2026-04-12 20:58 45.04496 -114.08205 38738 ft 434 kts 178°
2026-04-12 20:58 44.98566 -114.06489 38718 ft 438 kts 163°
2026-04-12 20:59 44.92918 -114.03465 38785 ft 438 kts 162°
2026-04-12 20:59 44.87206 -114.00398 38760 ft 438 kts 162°
2026-04-12 21:00 44.81509 -113.97340 38749 ft 439 kts 162°
2026-04-12 21:00 44.75812 -113.94287 38741 ft 438 kts 162°
2026-04-12 21:01 44.70107 -113.91232 38745 ft 437 kts 162°
2026-04-12 21:01 44.64468 -113.88218 38741 ft 437 kts 162°
2026-04-12 21:02 44.58792 -113.85188 38740 ft 437 kts 162°
2026-04-12 21:02 44.53142 -113.82179 38737 ft 437 kts 162°
2026-04-12 21:03 44.47457 -113.79156 38752 ft 437 kts 162°
2026-04-12 21:03 44.41790 -113.76148 38747 ft 436 kts 162°
2026-04-12 21:04 44.36142 -113.73156 38750 ft 435 kts 162°
2026-04-12 21:04 44.30490 -113.70167 38740 ft 435 kts 162°
2026-04-12 21:05 44.24853 -113.67194 38743 ft 434 kts 162°
2026-04-12 21:05 44.19187 -113.64210 38747 ft 434 kts 162°
2026-04-12 21:06 44.13979 -113.61472 38750 ft 434 kts 162°
2026-04-12 21:06 44.09495 -113.59105 38751 ft 434 kts 162°